Location: Helsinki
(60.1699°N, 24.9384°E)
Time: 13:37:49
(UTC+02:00)

Transit 4A - Pass Details

Date: 30 October 2020
Orbit: 862 x 982 km, 66.8° (Epoch: 26 November)

Event Time Altitude Azimuth Distance (km) Brightness Sun altitude
Rises 15:52:54 0° 213° (SSW) 3,621 12.5 2.9°
Reaches altitude 10° 15:55:26 10° 210° (SSW) 2,693 11.7 2.6°
Maximum altitude 16:01:39 63° 131° (SE) 1,082 8.3 2.0°
Drops below altitude 10° 16:08:00 10° 52° (NE) 2,747 9.7 1.3°
Sets 16:10:37 0° 50° (NE) 3,699 10.3 1.0°
